New Castle, DE

12:41 AM EST on February 28, 2017 (GMT -0500)
New Castle County

Weather History for KILG - August, 2013

Change the Weather History Date:

Monday, August 19, 2013

  Actual Average Record
Temperature  
Mean Temperature 70 °F 75 °F  
Max Temperature 77 °F 84 °F 97 °F (1914)
Min Temperature 63 °F 66 °F 51 °F (1924)
Degree Days  
Heating Degree Days 0 0  
Month to date heating degree days 0 0  
Since 1 June heating degree days 0 15  
Since 1 July heating degree days 0 0  
Cooling Degree Days 5 10  
Month to date cooling degree days 145 206  
Year to date cooling degree days 960 883  
Since 1 June cooling degree days 853 804  
Growing Degree Days 19 (Base 50)    
Moisture  
Dew Point 61 °F    
Average Humidity 76    
Maximum Humidity 90    
Minimum Humidity 61    
Precipitation  
Precipitation T in 0.10 in 4.80 in (1901)
Month to date precipitation 4.60 2.08  
Year to date precipitation 35.71 27.59  
Snow  
Snow 0.00 in 0.00 in 0.00 in (1894)
Month to date snowfall 0.0 0.0  
Since 1 June snowfall 0.0 0.0  
Since 1 July snowfall 0.0 0.0  
Snow Depth 0.00 in    
Sea Level Pressure  
Sea Level Pressure 30.13 in    
Wind  
Wind Speed 4 mph (WSW)    
Max Wind Speed 12 mph    
Max Gust Speed 15 mph    
Visibility 10 miles    
Events      
T = Trace of Precipitation, MM = Missing Value Source: NWS Daily Summary

Daily Weather History Graph

Daily Weather History Graph

Search for Another Location

Airport or City:

Trip Planner

Search our weather history database for the weather conditions in past years. The results will help you decide how hot, cold, wet, or windy it might be!

Date:

Astronomy

Aug. 19, 2013 Rise Set
Actual Time 6:18 AM EDT 7:52 PM EDT
Civil Twilight 5:50 AM EDT 8:21 PM EDT
Nautical Twilight 5:15 AM EDT 8:55 PM EDT
Astronomical Twilight 4:39 AM EDT 9:31 PM EDT
Moon 6:42 PM EDT (8/19) 4:35 AM EDT (8/19)
Length of Visible Light 14h 31m
Length of Day
13h 34m
Waxing Gibbous, 97% of the Moon is Illuminated
Aug 19
Waxing Gibbous
Aug 20
Full
Aug 28
Last Quarter
Sep 5
New
Sep 12
First Quarter

Hourly Weather History & Observations

Time (EDT) Temp. Dew Point Humidity Pressure Visibility Wind Dir Wind Speed Gust Speed Precip Events Conditions
12:51 AM 66.9 °F 61.0 °F 81% 30.18 in 10.0 mi WNW 3.5 mph - N/A   Overcast
1:51 AM 66.9 °F 61.0 °F 81% 30.17 in 10.0 mi West 3.5 mph - N/A   Overcast
2:51 AM 66.0 °F 60.1 °F 81% 30.16 in 10.0 mi NW 3.5 mph - N/A   Overcast
3:51 AM 64.9 °F 59.0 °F 81% 30.15 in 10.0 mi West 3.5 mph - N/A   Partly Cloudy
4:51 AM 63.0 °F 59.0 °F 87% 30.15 in 10.0 mi WNW 3.5 mph - N/A   Clear
5:51 AM 63.0 °F 59.0 °F 87% 30.15 in 10.0 mi Calm Calm - N/A   Clear
6:51 AM 63.0 °F 59.0 °F 87% 30.17 in 10.0 mi WNW 3.5 mph - N/A   Clear
7:51 AM 66.0 °F 59.0 °F 78% 30.16 in 8.0 mi Calm Calm - N/A   Clear
8:51 AM 69.1 °F 59.0 °F 70% 30.16 in 10.0 mi Calm Calm - N/A   Clear
9:51 AM 71.1 °F 57.9 °F 63% 30.17 in 10.0 mi WSW 4.6 mph - N/A   Clear
10:51 AM 73.0 °F 59.0 °F 61% 30.15 in 10.0 mi Variable 3.5 mph - N/A   Clear
11:51 AM 73.0 °F 60.1 °F 64% 30.13 in 10.0 mi West 8.1 mph - N/A   Clear
12:51 PM 73.0 °F 60.1 °F 64% 30.12 in 10.0 mi SW 8.1 mph - N/A   Clear
1:51 PM 73.0 °F 60.1 °F 64% 30.12 in 10.0 mi West 9.2 mph - N/A   Clear
2:51 PM 73.9 °F 63.0 °F 68% 30.11 in 10.0 mi SSW 8.1 mph - N/A   Partly Cloudy
3:51 PM 75.9 °F 64.0 °F 67% 30.10 in 10.0 mi WSW 6.9 mph - N/A   Clear
4:51 PM 75.0 °F 64.0 °F 69% 30.10 in 10.0 mi WSW 6.9 mph - 0.00 in   Mostly Cloudy
5:51 PM 75.0 °F 64.0 °F 69% 30.09 in 10.0 mi WSW 3.5 mph - N/A   Clear
6:51 PM 73.9 °F 64.0 °F 71% 30.09 in 10.0 mi SW 4.6 mph - N/A   Mostly Cloudy
7:51 PM 73.0 °F 64.0 °F 73% 30.09 in 10.0 mi WSW 3.5 mph - N/A   Scattered Clouds
8:51 PM 72.0 °F 64.0 °F 76% 30.09 in 10.0 mi SW 3.5 mph - N/A   Clear
9:51 PM 71.1 °F 64.0 °F 78% 30.10 in 10.0 mi Calm Calm - N/A   Clear
10:51 PM 70.0 °F 64.9 °F 84% 30.11 in 10.0 mi SW 3.5 mph - N/A   Clear
11:51 PM 69.1 °F 64.9 °F 87% 30.11 in 10.0 mi SW 4.6 mph - N/A   Clear